Flag for Canada Weather past 2 weeks in Quispamsis, New Brunswick, Canada

Now
64 °F

Fog.


Feels Like: 64 °F
Forecast: 60 / 67 °F
Wind: 12 mph from South

Location: Saint John

Current Time: Jul 8, 2015 at 2:32:31 AM

Latest Report: Jul 8, 2015 at 2:00 AM


Visibility: 5 mi

Pressure: 29.97 "Hg

Humidity: 94%

Dew point: 63 °F

Location of QuispamsisLocation

Historic Weather in Quispamsis — Graph

°F

Quispamsis temperature yesterday

Maximum temperature yesterday: 73 °F (at 12:00 PM)
Minimum temperature yesterday: 48 °F (at 5:00 AM)
Average temperature yesterday: 62 °F

Past Weeks' High & Low Weather Summary

 TemperatureHumidityPressure
High79 °F (Jul 6, 1:00 PM)100% (Jun 23, 7:00 AM)30.21 "Hg (Jun 23, 7:00 AM)
Low43 °F (Jul 4, 4:00 AM)33% (Jun 25, 2:00 PM)29.67 "Hg (Jun 29, 6:00 AM)
Average60 °F78%29.95 "Hg
* Reported Jun 23 1:00 AM — Jul 8 1:00 AM, Quispamsis, Weather by CustomWeather, © 2015

Note: Actual official high and low records may vary slightly from our data, if they occured in-between our weather recording intervals... More about our weather records

Advertising

Quispamsis weather history for previous 24 hours

 ConditionsComfort  
Time TempWeatherWind HumidityBarometerVisibility
1:00 AM
Wed, Jul 8
64 °FOvercast.9 mph94%30.01 "Hg12 mi
12:00 AM63 °FPassing clouds.9 mph100%30.05 "Hg10 mi
11:00 PM
Tue, Jul 7
63 °FFog.14 mph100%30.06 "Hg1 mi
10:00 PM61 °FFog.14 mph100%30.07 "Hg1 mi
9:00 PM63 °FFog.13 mph100%30.07 "Hg1 mi
8:00 PM66 °FBroken clouds.14 mph88%30.07 "Hg15 mi
7:00 PM66 °FPartly sunny.10 mph88%30.08 "Hg15 mi
6:00 PM66 °FPartly sunny.13 mph88%30.10 "Hg15 mi
5:00 PM68 °FPartly sunny.18 mph83%30.10 "Hg15 mi
4:00 PM70 °FPassing clouds.16 mph73%30.10 "Hg15 mi
3:00 PM73 °FPassing clouds.17 mph65%30.09 "Hg15 mi
2:00 PM73 °FSunny.17 mph61%30.12 "Hg15 mi
1:00 PM73 °FSunny.17 mph57%30.13 "Hg15 mi
12:00 PM73 °FSunny.14 mph61%30.14 "Hg15 mi
11:00 AM72 °FSunny.14 mph61%30.15 "Hg15 mi
10:00 AM70 °FSunny.9 mph69%30.16 "Hg15 mi
9:00 AM64 °FPassing clouds.6 mph83%30.17 "Hg10 mi
8:00 AM61 °FPassing clouds.2 mph88%30.16 "Hg10 mi
7:00 AM54 °FFog.No wind100%30.16 "Hg6 mi
6:00 AM48 °FFog.No wind100%30.15 "Hg2 mi
5:00 AM48 °FFog.No wind100%30.14 "Hg1 mi
4:00 AM50 °FPassing clouds.No wind94%30.14 "Hg15 mi
3:00 AM50 °FPassing clouds.No wind94%30.13 "Hg15 mi
2:00 AM52 °FPassing clouds.No wind94%30.14 "Hg15 mi
Weather by CustomWeather, © 2015

See weather overviewHow to use our weather pages